Regional Weather Roundup
Issued by NWS

Home | Current Version | Previous Version | Graphics & Text | Print | Product List | Glossary On
Versions: 1 2 3 4 5 6 7 8 9 10 11 12 13 14 15 16 17 18 19 20 21 22 23 24 25 26 27 28 29 30 31 32 33 34 35 36 37 38 39 40 41 42 43 44 45 46 47 48 49 50
000
ASUS43 KMPX 200101
RWRMN
WEATHER ROUNDUP FOR MINNESOTA
NATIONAL WEATHER SERVICE TWIN CITIES/CHANHASSEN MN
800 PM CDT WED JUL 19 2017


NOTE: "FAIR" INDICATES FEW OR NO CLOUDS BELOW 12,000 FEET WITH NO
SIGNIFICANT WEATHER AND/OR OBSTRUCTIONS TO VISIBILITY. N/A MEANS
CURRENT SKY AND/OR WEATHER CONDITIONS ARE NOT AVAILABLE.

MNZ060>063-068>070-200200-
   Twin Cities Metro

CITY           SKY/WX    TMP DP  RH WIND       PRES   REMARKS
TWIN CITIES    CLOUDY    72  66  81 S3        29.91F
ST PAUL        CLOUDY    71  68  90 CALM      29.92S
CRYSTAL        CLOUDY    71  63  75 CALM      29.91S
BLAINE         MOCLDY    73  66  78 S6        29.93R
LAKEVILLE      CLOUDY    70  70 100 CALM      29.91F
EDEN PRAIRIE   CLOUDY    72  67  84 S5        29.90F
SOUTH ST PAUL  CLOUDY    70  68  93 S3        29.91F
LAKE ELMO      FAIR      70  66  88 SW6       29.93F
$$
MNZ001>005-007-008-013>017-022>024-027-028-200200-
   Northwest Minnesota

CITY           SKY/WX    TMP DP  RH WIND       PRES   REMARKS
BEMIDJI        CLEAR     77  62  60 SW5       29.90S
HALLOCK        SUNNY     79  68  69 CALM      29.84R
ROSEAU         SUNNY     75  66  73 W6        29.86S
WARROAD        CLOUDY    73  66  78 W6        29.86S
CROOKSTON      SUNNY     79  68  69 SW5       29.86S
FOSSTON        SUNNY     77  64  65 SW6       29.90S
DETROIT LAKES  CLEAR     77  64  65 SW5       29.94R
MOORHEAD       SUNNY     81  66  61 CALM      29.90S
PARK RAPIDS    CLEAR     77  62  59 S7        29.93S
MAHNOMEN       FAIR      75  66  74 SW5       29.90S
$$
MNZ006-009>011-018-025>026-200200-
   North Central Minnesota

CITY           SKY/WX    TMP DP  RH WIND       PRES   REMARKS
BAUDETTE       CLOUDY    72  61  68 S8        29.86S
FLAG ISLAND    PTSUNNY   70  64  83 S5        29.83F
INTL FALLS     CLOUDY    71  60  68 CALM      29.88F
WASKISH        CLOUDY    75  63  64 CALM      29.88S
BIG FORK       CLEAR     72  61  68 S5        29.91F
LONGVILLE      CLEAR     73  57  56 S6        29.94S
GRAND RAPIDS   CLEAR     74  59  59 S5        29.96R
CRANE LAKE     CLOUDY    68  63  83 CALM      29.92R
ORR            CLOUDY    70  61  73 SE5       29.89F
COOK           CLOUDY    73  57  56 S3        29.94S
WALKER         FAIR      75  60  59 S7        29.92S
$$
MNZ012-019>021-037-200200-
   Northeast Minnesota

CITY           SKY/WX    TMP DP  RH WIND       PRES   REMARKS
DULUTH         PTCLDY    73  61  65 S5        29.95R
ELY            CLOUDY    72  61  68 CALM      29.95S
HIBBING        CLEAR     73  59  61 S3        29.94S
EVELETH        CLOUDY    73  56  56 CALM      29.96S
DULUTH HARBOR  CLOUDY    68  61  77 NE5       29.93S
TWO HARBORS    CLOUDY    72  63  73 CALM      29.92S
GRAND MARAIS     N/A     61  54  77 CALM      29.94R
G MARAIS ARPRT CLOUDY    63  55  77 CALM      29.99R
$$
MNZ029>031-032-039>041-046>048-054>057-064-200200-
   West Central Minnesota

CITY           SKY/WX    TMP DP  RH WIND       PRES   REMARKS
FERGUS FALLS   PTCLDY    77  66  69 CALM      29.92R
WHEATON        MOSUNNY   75  66  73 E5        29.93R
MORRIS         MOCLDY    75  70  83 NE5       29.90F
ALEXANDRIA     CLOUDY    74  65  73 E5        29.96R
ELBOW LAKE     MOCLDY    75  67  77 SE3       29.93S
WADENA         CLOUDY    77  64  65 CALM      29.94S
GLENWOOD       CLOUDY    73  66  78 NE3       29.94F
APPLETON       PTCLDY    79  68  69 SE3       29.89S
BENSON         CLEAR     75  68  78 E3        29.92S
ORTONVILLE     PTCLDY    77  68  73 SE3       29.89F
MADISON        CLOUDY    81  72  74 S3        29.89S
WILLMAR        MOCLDY    75  70  83 SE6       29.91F
$$
MNZ033>034-036-042>043-049>051-058-059-200200-
   Central Minnesota

CITY           SKY/WX    TMP DP  RH WIND       PRES   REMARKS
ST CLOUD       CLOUDY    72  65  78 CALM      29.94R
SAUK CENTRE    CLOUDY    73  64  75 E3        29.94F
PAYNESVILLE    CLOUDY    73  65  74 E3        29.93F
AITKIN         CLOUDY    73  59  60 S5        29.94R
PINE RIVER     CLEAR     75  63  64 S3        29.97S
BRAINERD       CLOUDY    74  61  63 S6        29.95R
STAPLES        CLOUDY    75  63  64 S3        29.94S
LONG PRAIRIE   FAIR      72  64  78 E3        29.95S
LITTLE FALLS   CLOUDY    72  63  73 CALM      29.96R
LITCHFIELD     PTCLDY    73  70  88 CALM      29.92F
BUFFALO        MOCLDY    71  64  78 CALM      29.93F
MAPLE LAKE     MOCLDY    72  67  84 CALM      29.93F
HUTCHINSON     CLOUDY    73  69  87 SE3       29.92S
$$
MNZ037-044-045-052-053-200200-
   East Central Minnesota

CITY           SKY/WX    TMP DP  RH WIND       PRES   REMARKS
PRINCETON      CLOUDY    73  64  73 CALM      29.95R
MORA           PTCLDY    70  59  68 CALM      29.97R
CAMBRIDGE      PTCLDY    73  61  64 SE3       29.93S
RUSH CITY      LGT RAIN  72  61  68 S3        29.94S
MOOSE LAKE     PTCLDY    72  61  68 CALM      29.93R
HINCKLEY       FAIR      73  63  68 S3        29.95R
CLOQUET        CLOUDY    75  57  53 S3        29.95R
MCGREGOR       CLEAR     73  59  60 S5        29.95R
$$
MNZ071>073-080-081-089-090-097-098-200200-
   Southwest Minnesota

CITY           SKY/WX    TMP DP  RH WIND       PRES   REMARKS
MONTEVIDEO     PTCLDY    77  68  73 S3        29.90S
GRANITE FALLS  PTCLDY    78  70  77 SE7       29.91S
CANBY          CLEAR     78  69  75 CALM      29.91R
MARSHALL       CLOUDY    76  70  82 SE6       29.90S
REDWOOD FALLS  CLOUDY    74  67  78 SE7       29.89F
OLIVIA         CLOUDY    73  68  83 SE6       29.89S
PIPESTONE      CLOUDY    79  70  73 E5        29.90S
WINDOM         CLOUDY    75  66  73 SE7       29.91S
WORTHINGTON    CLOUDY    76  68  76 MISG      29.92R
JACKSON        CLOUDY    73  66  78 CALM      29.93S
TRACY          CLOUDY    77  72  84 SE3       29.91R
SLAYTON        HVY RAIN  74  67  78 SE5       29.93R
$$
MNZ065>067-074>077-082>085-091>093-200200-
   South Central Minnesota

CITY           SKY/WX    TMP DP  RH WIND       PRES   REMARKS
MANKATO        CLOUDY    71  67  87 SE9       29.90F
NEW ULM        CLOUDY    73  66  78 SE5       29.90S
ST JAMES       CLOUDY    73  66  78 SE7       29.90F
FAIRMONT       CLOUDY    74  68  81 SE6       29.91F
GLENCOE        CLOUDY    72  71  94 SE5       29.90F
FARIBAULT      CLOUDY    70  66  88 S9        29.91F
OWATONNA       CLOUDY    72  66  83 SE9       29.92F
WASECA         CLOUDY    72  68  88 SE6       29.92F
ALBERT LEA     PTCLDY    70  68  94 SE5         N/A
$$
MNZ078>079-086>088-094>096-200200-
   Southeast Minnesota

CITY           SKY/WX    TMP DP  RH WIND       PRES   REMARKS
ROCHESTER      CLOUDY    68  67  96 S12       29.94F
RED WING       CLOUDY    72  64  78 CALM      29.89F
STANTON        CLOUDY    71  67  87 S7        29.89F
DODGE CENTER   CLOUDY    66  66 100 S7        29.93F
WINONA         CLOUDY    72  68  88 SW7       29.94R
AUSTIN         CLOUDY    70  68  94 SE3       29.86F
PRESTON        CLOUDY    66  65  95 S7        29.98R
$$
ABBREVIATIONS USED IN REMARKS
   TC - TEMPERATURES IN CELSIUS
  WCI - WIND CHILL INDEX
   HX - HEAT INDEX
  VSB - VISIBILITY
$$




USA.gov is the U.S. government's official web portal to all federal, state and local government web resources and services.